Nicolò Giuliani

Olheiro-Chefe - Inter
3 Dez 2028
Domingo
Processo

Personalidade

Adaptabilidade (6) Ambição (4) Controvérsia (11) Lealdade (1) Pressão (17) Profissionalismo (5) Espírito Esportivo (19) Temperamento (17)

Perfil

Estilo de Treinamento Democrático
Licença Continental B
Determinação 6
Gestão de Pessoas 11
Motivação 9
Disciplina 14
Satisfação no Trabalho
100%
Fadiga
0%
Função Olheiro-Chefe
Salário 66.2K p/s
Contrato 14.03.2029

Desempenho

Comportamento Bom
Eficácia do Treinamento
51%
Desenvolvimento do Jogador
80%
Prevenção de Lesões
50%
Implementação Tática
80%

Eventos Recentes

Participou de uma reunião de recrutamento agora
Participou de uma reunião de recrutamento agora
Recomendou um alvo de transferência agora
Recomendou um alvo de transferência agora
Recomendou um alvo de transferência agora
Recomendou um alvo de transferência agora
Recomendou um alvo de transferência 7d atrás
Recomendou um alvo de transferência 7d atrás

Monitorando agora

111
Jogador Clube Status Habilidade Confiança Observado Última observação Último voto
Alexander Isak Liverpool Ativo 177 / 178 40% 1 14.08.2028 -
Jérémy Doku Manchester City Ativo 176 / 173 40% 1 14.08.2028 -
Enzo Fernández Manchester City Ativo 174 / 175 40% 2 31.07.2028 -
Federico Dimarco Manchester City Ativo 168 / 166 40% 1 31.07.2028 -
Adam Wharton Crystal Palace Ativo 165 / 164 40% 1 17.07.2028 -
Tino Livramento Newcastle United Perdido 169 / 166 40% 1 17.07.2028 -
Ousmane Diomande Nottingham Forest Ativo 159 / 162 40% 1 17.07.2028 -
Benjamin White Arsenal Ativo 166 / 161 40% 1 10.07.2028 -
Caoimhin Kelleher Brentford Ativo 160 / 157 40% 2 01.06.2028 -
Alex Meret Napoli Ativo 159 / 154 40% 1 01.06.2028 -
Gianluigi Donnarumma AS Roma Negociando 166 / 173 40% 1 01.06.2028 -
Sandro Tonali Tottenham Perdido 176 / 175 40% 1 31.05.2028 -
Ryan Gravenberch Liverpool Ativo 167 / 164 40% 1 31.05.2028 -
Omar Marmoush Manchester City Ativo 173 / 170 40% 1 31.05.2028 -
Daniel Banjaqui Benfica Ativo 123 / 129 40% 11 29.05.2028 -
Ayden Heaven Portsmouth Ativo 143 / 151 40% 15 29.05.2028 -
Noahkai Banks FC Augsburg Ativo 138 / 144 40% 8 29.05.2028 -
Bade Aluko Leicester City Ativo 124 / 124 40% 6 27.05.2028 -
Tobías Ramírez River Plate Ativo 135 / 132 40% 9 24.05.2028 -
Jan Bürger Northampton Town Ativo 118 / 123 40% 9 24.05.2028 -
Jorthy Mokio ADO Den Haag Ativo 134 / 136 40% 10 23.05.2028 -
Josh Nichols Oldham Athletic Ativo 122 / 125 40% 5 23.05.2028 -
Giovanni Leoni Lincoln City Ativo 142 / 143 40% 8 23.05.2028 -
Ezra Mayers West Ham United Ativo 126 / 127 40% 15 11.05.2028 -
Luka Vušković Tottenham Ativo 144 / 151 40% 24 10.05.2028 -
Trey Nyoni Rotherham United Ativo 138 / 145 40% 7 10.05.2028 -
Christos Mouzakitis Hull City Ativo 140 / 140 40% 4 09.05.2028 -
Josh Acheampong Everton Ativo 144 / 147 40% 22 26.04.2028 -
Halam Loboa Sevilla Ativo 127 / 130 40% 21 07.04.2028 -
Thiago Silvero Vélez Ativo 131 / 133 40% 4 07.04.2028 -
Jason Witsel PSV Ativo 122 / 127 40% 4 11.03.2028 -
Jofre Torrents Ajax Ativo 128 / 132 40% 4 27.02.2028 -
Eric da Silva Moreira Nottingham Forest Ativo 128 / 128 40% 5 24.02.2028 -
Almugera Kabar Borussia Dortmund Ativo 128 / 127 40% 3 15.02.2028 -
Yoram Zague Paris Saint-Germain Ativo 126 / 129 40% 2 10.02.2028 -
Mats Rots TSG Hoffenheim Ativo 125 / 134 40% 1 08.02.2028 -
Niccolò Fortini Fiorentina Ativo 132 / 140 40% 12 01.02.2028 -
Lucas Bergvall Tottenham Ativo 155 / 154 40% 8 23.01.2028 -
Moise Kean Fiorentina Ativo 165 / 153 40% 1 12.01.2028 -
Giacomo Raspadori Atalanta Perdido 159 / 151 40% 1 12.01.2028 -
Martin Baturina Como Perdido 143 / 147 40% 2 02.01.2028 -
Devyne Rensch Virtus Entella Ativo 144 / 145 40% 1 02.01.2028 -
Marco Carnesecchi Club America Ativo 153 / 153 95% 1 01.01.2028 Aprovar
Mao Hosoya Santos Ativo 134 / 135 67% 1 01.01.2028 Aprovar
Gabri Veiga Getafe Ativo 147 / 149 69% 1 01.01.2028 Aprovar
Riccardo Orsolini Bologna Ativo 161 / 154 72% 1 01.01.2028 Aprovar
Victor Hernandez Santa Fe Ativo 130 / 122 40% 9 22.12.2027 -
Malick Yalcouyé Brighton Ativo 127 / 134 40% 12 08.11.2027 -
Elias Baum Eintracht Frankfurt Ativo 132 / 133 40% 3 16.10.2027 -
Eliás Montiel Borussia Dortmund Ativo 138 / 138 40% 10 23.09.2027 -
Matias Siltanen Malmo FF Ativo 114 / 121 40% 7 09.09.2027 -
Exequiel Palacios Lazio Ativo 166 / 166 40% 1 30.08.2027 -
Manu Koné AS Roma Ativo 164 / 163 40% 1 30.08.2027 -
Wesley AS Roma Ativo 142 / 150 40% 21 13.07.2027 -
Nathaniel Brown Bayern Munich Ativo 146 / 149 40% 1 06.07.2027 -
Enzo Millot Al-Ahli Ativo 143 / 154 40% 1 06.07.2027 -
Tomás Pérez Porto Ativo 125 / 122 40% 2 20.06.2027 -
Francisco Trincão Inter Ativo 156 / 156 66% 1 01.06.2027 Aprovar
Malo Gusto Chelsea Ativo 155 / 149 40% 14 29.05.2027 -
Eduardo Lozano Botafogo Ativo 151 / 142 40% 1 22.05.2027 -
Savinho Tottenham Ativo 153 / 157 40% 11 18.05.2027 -
Diego Gómez Brighton Ativo 147 / 143 40% 21 13.05.2027 -
Kobbie Mainoo Manchester United Ativo 155 / 155 40% 17 07.05.2027 -
Mathys Tel Tottenham Ativo 141 / 148 40% 3 05.05.2027 -
Kenneth Taylor Lazio Ativo 145 / 156 40% 13 02.05.2027 -
Bence Dárdai VfL Wolfsburg Ativo 135 / 133 40% 1 21.04.2027 -
Arthur Atta Fiorentina Ativo 133 / 139 40% 1 08.02.2027 -
Raúl Rangel Braga Ativo 132 / 132 66% 1 01.01.2027 Aprovar
Louis Leroux FC Nantes Ativo 119 / 128 40% 4 29.12.2026 -
Abdoulkarim Traoré Al Ain Ativo 120 / 134 40% 2 29.12.2026 -
Riyad Idrissi Cagliari Ativo 128 / 125 40% 9 27.12.2026 -
David Ozoh Derby County Ativo 121 / 128 40% 5 23.12.2026 -
Andrea Pinamonti Lazio Ativo 129 / 131 40% 3 20.12.2026 -
Mile Svilar AS Roma Ativo 159 / 157 40% 2 15.12.2026 Mais informações
Ivo Mammini Beitar Jerusalem Ativo 122 / 129 40% 1 11.12.2026 -
Armstrong Oko-Flex Levski Ativo 131 / 114 40% 1 06.12.2026 -
Sota Kitano Red Bull Salzburg Ativo 129 / 126 40% 1 05.12.2026 -
Nikita Stoinov Dinamo Bucharest Ativo 124 / 134 40% 1 26.11.2026 -
Sergi Domínguez Dinamo Zagreb Ativo 125 / 128 40% 3 25.11.2026 -
Elia Caprile Cagliari Ativo 134 / 147 40% 1 24.11.2026 -
Giorgi Kvernadze Frosinone Ativo 127 / 129 40% 1 17.11.2026 -
Donyell Malen AS Roma Ativo 145 / 145 40% 1 03.11.2026 -
Martín Ojeda Orlando City Ativo 129 / 131 40% 1 01.11.2026 -
Nicolò Zaniolo Udinese Ativo 149 / 146 40% 1 27.10.2026 -
Matheus Cunha Manchester United Ativo 160 / 156 40% 2 25.10.2026 -
Tyrese Campbell Sheffield United Ativo 120 / 129 40% 2 25.10.2026 -
Gabriel Martinelli Arsenal Ativo 162 / 164 40% 3 25.10.2026 -
Nico O'Reilly Manchester City Ativo 148 / 153 40% 6 23.10.2026 -
Nicolas Jackson Aston Villa Ativo 140 / 141 40% 2 23.10.2026 -
Mbekezeli Mbokazi Chicago Fire Ativo 112 / 121 40% 2 21.10.2026 -
Vitinha Genoa Ativo 126 / 133 40% 1 21.10.2026 -
Antoine Semenyo Manchester City Ativo 151 / 159 40% 1 21.10.2026 -
Kyriani Sabbe Club Brugge Ativo 122 / 124 40% 1 15.10.2026 -
Lautaro Vargas Unión de Santa Fe Ativo 116 / 119 40% 1 10.10.2026 -
Mohamed-Ali Cho Hull City Ativo 132 / 140 40% 1 08.10.2026 -
Kévin Denkey FC Cincinnati Ativo 123 / 122 40% 1 08.10.2026 -
Morgan Rogers Chelsea Ativo 156 / 156 40% 2 07.10.2026 -
Talles Magno New York City Ativo 139 / 127 40% 1 07.10.2026 -
John Pulskamp Sporting Kansas City Ativo 112 / 116 40% 1 06.10.2026 -
Caleb Yirenkyi Coventry City Ativo 126 / 136 40% 4 01.10.2026 -
Stefano Di Mario Virtus Entella Ativo 115 / 131 40% 1 28.09.2026 -
Ignacio Perruzzi San Lorenzo Ativo 114 / 138 40% 1 23.09.2026 -
Iván Fresneda Sporting CP Ativo 135 / 144 40% 1 21.09.2026 -
Mathias De Amorim Famalicao Ativo 135 / 138 40% 1 18.09.2026 -
James Bacca La Equidad Ativo 131 / 123 40% 1 16.09.2026 -
Lewis Hall Newcastle United Ativo 141 / 152 40% 1 30.08.2026 -
Victor Froholdt Porto Ativo 151 / 152 40% 1 26.08.2026 -
Rayan Cherki Manchester City Ativo 159 / 168 40% 1 04.08.2026 -
Hugo Ekitiké Liverpool Ativo 156 / 158 40% 2 03.08.2026 -
Bradley Barcola Liverpool Ativo 162 / 156 40% 1 01.08.2026 -
Benjamin Šeško Manchester United Ativo 152 / 151 40% 1 01.08.2026 -